Location: Newark
(50.6167°N, 5.6500°E)
Time: 02:23:28
(UTC+00:00)

Starlink (trailer) - Visible Passes

Search period start: 18 July 2019 00:00
Search period end: 28 July 2019 00:00
Orbit: 548 x 551 km, 53.0° (Epoch: 16 July)

Date Brightness Start Highest point End Pass type
(mag) Time Alt. Az. Time Alt. Az. Time Alt. Az.
18 Jul 5.4 01:01:01 16° SE 01:01:34 17° SE 01:04:14 10° E visible
18 Jul 3.8 02:36:39 11° SW 02:40:33 63° SSE 02:44:39 10° ENE visible
19 Jul 5.1 00:55:34 21° SE 00:56:00 21° SE 00:59:10 10° E visible
19 Jul 3.6 02:31:12 11° WSW 02:35:07 75° SSE 02:39:16 10° ENE visible
20 Jul 4.8 00:50:05 26° SSE 00:50:28 26° SE 00:53:58 10° E visible
20 Jul 3.6 02:25:43 11° WSW 02:29:43 87° SSE 02:33:53 10° ENE visible
21 Jul 4.4 00:44:33 32° SSE 00:44:57 33° SE 00:48:42 10° ENE visible
21 Jul 3.7 02:20:11 10° WSW 02:24:18 83° NNW 02:28:29 10° ENE visible
22 Jul 4.1 00:38:58 39° SSE 00:39:28 41° SE 00:43:22 10° ENE visible
22 Jul 3.8 02:14:46 10° W 02:18:55 75° NNW 02:23:05 10° ENE visible
23 Jul 3.8 00:33:20 45° S 00:33:59 50° SSE 00:38:01 10° ENE visible
23 Jul 3.9 02:09:24 10° W 02:13:33 69° N 02:17:42 10° ENE visible
23 Jul 6.1 22:52:02 10° E 22:52:02 10° E 22:52:08 10° E visible
24 Jul 3.6 00:27:39 48° SSW 00:28:32 61° SSE 00:32:38 10° ENE visible
24 Jul 4.0 02:04:02 10° W 02:08:10 64° N 02:12:19 10° ENE visible
24 Jul 5.8 22:46:17 14° E 22:46:17 14° E 22:47:06 10° E visible
25 Jul 3.5 00:21:54 44° SW 00:23:06 73° SSE 00:27:14 10° ENE visible
25 Jul 4.1 01:58:41 10° W 02:02:48 62° N 02:06:56 10° ENE visible
25 Jul 5.4 22:40:26 18° E 22:40:26 18° E 22:41:54 10° E visible
26 Jul 3.5 00:16:02 36° WSW 00:17:40 85° SSE 00:21:50 10° ENE visible
26 Jul 4.1 01:53:19 10° W 01:57:26 61° N 02:01:34 10° E visible
26 Jul 4.9 22:34:25 24° ESE 22:34:25 24° ESE 22:36:37 10° E visible
27 Jul 3.6 00:10:01 26° WSW 00:12:15 85° NNW 00:16:25 10° ENE visible
27 Jul 4.1 01:47:57 10° WNW 01:52:04 61° N 01:56:12 10° E visible
27 Jul 4.2 22:28:05 36° ESE 22:28:05 36° ESE 22:31:18 10° ENE visible
